{"data":{"norad_id":64918,"intl_designator":"2025-157Q","name":"STARLINK-34611","alt_names":[],"object_type":"PAYLOAD","status":"ACTIVE","operator":null,"country":"US","launch_date":"2025-07-26","launch_site_code":"AFETR","launch_vehicle":null,"mission":null,"orbit_class":"UNKNOWN","rcs_meters":null,"size_class":null,"mass_kg":null,"dimensions":null,"purposes":["comms"],"wikipedia_slug":null,"has_3d_model":false,"image_url":null,"decayed_at":null,"tle_current":{"epoch":"2026-05-24T20:34:15.209472Z","epoch_age_seconds":83469,"freshness":"FRESH","line1":"1 64918U 25157Q   26144.85712048  .00017555  00000+0  54352-3 0  9994","line2":"2 64918  53.1599 351.9997 0000867  81.3351 278.7750 15.33567921 47781","mean_motion":15.33567921,"eccentricity":8.67e-5,"inclination_deg":53.1599,"raan_deg":351.9997,"arg_perigee_deg":81.3351,"mean_anomaly_deg":278.775,"bstar":0.00054352,"rev_number":4778,"period_min":93.898677735839,"perigee_km":464.58415712844,"apogee_km":465.77078785797,"semimajor_km":6843.3144724932,"source":"CELESTRAK","updated_at":"2026-05-25T13:38:20.623250Z"}}}